OPS 4682 DEB, 38375

Orbit data source: Space-Track

OPS 4682 DEB, 38375 is space debris in LEO originally from a launch on Sat, 03 Apr 1965 UTC launched from the Air Force Western Test Range (AFWTR). Debris objects in space refer to the collection of defunct objects orbiting the Earth. Examples of debris include non-operational satellites, rocket bodies, and fragments generated from explosions, collisions, or faulty payload assembly.

Loading next visibility...
Identifier
38375, 1965-027CC
Orbit
LEO
Country
Flag of USUS
Related business
Manufacturer
Unknown
Mission
Spacecraft
Bus & Motor
Unknown
Mass
Unknown
Launch date (UTC)
1965-04-03 (61 years ago)
Launch vehicle
Unknown
Launch site
Air Force Western Test Range (AFWTR)
Object type
Payload
Rocket body
Debris
Shape & HBR
Unknown shape, 0.1 m
Radar Cross Section
Small (<0.1 m²)

Expand to show TLE details & history
Last TLE update: 1 day ago

TLE from 1 day ago
0 OPS 4682 DEB
1 38375U 65027CC  26262.98823232  .00000288  00000-0  99988-3 0  9995
2 38375  90.2465   9.1346 0029177 319.6775  40.2181 12.94931452628395
Epoch: 2026-09-19T23:43Z
TLE epoch observation values (Epoch: 2026-09-19T23:43:03.272Z)
Latitude
0.00002°
Longitude
14.4821°
Altitude
1,267.844 km
Speed
7.23 km/s
True Right ascension
00h 36m 32s
True Declination
0° 00' 00"
Sunlit
Object was in full shadow at epoch
Visualization orbit readout
Latitude
Unknown
Longitude
Unknown
Altitude
Unknown
Speed
Unknown
Apparent Right ascension
Unknown
Apparent Declination
Unknown
Sunlit
N/A
Visualization observer readout
Local Sidereal Time
01:04:11
Azimuth
Unknown
Elevation
Unknown
Doppler factor
Unknown
Orbital elements
Apogee altitude
1,301.486 km
Perigee altitude
1,256.803 km
Semi-major axis
7,657.282 km
Eccentricity
0.00292
Inclination
90.2465°
RAAN
9.1346°
Arg. of periapsis
319.6775°
True anomaly
40.43459°
Mean anomaly
40.2181°
Eccentric anomaly
40.32628°
Mean motion
3.23915 °/min
Orbital period
111.14 mins
BSTAR
0.00099988
Loading maneuver chart data...
Computing Atmospheric mass density...
Loading historical data...
Loading historical data...
Loading historical data...
Loading historical data...
Loading historical data...
Loading historical data...
Loading historical data...

Documentation

Showing up to 5 results
|